Location: Unspecified
(50.7693°N, 0.0000°E)
Time: 02:23:38
(UTC+00:00)

A-11 Canister half - Pass Details

Date: 22 June 2019
Orbit: 1526 x 1683 km, 47.3° (Epoch: 17 July)

Event Time Altitude Azimuth Distance (km) Brightness Sun altitude
Rises 06:52:18 0° 258° (WSW) 4,716 11.0 25.8°
Reaches altitude 10° 06:55:22 10° 257° (WSW) 3,719 10.6 26.2°
Maximum altitude 07:04:40 72° 175° (S) 1,593 9.6 27.7°
Drops below altitude 10° 07:13:54 10° 94° (E) 3,701 12.7 29.2°
Sets 07:16:58 0° 92° (E) 4,692 12.8 29.6°
